SL-8 R/B

Satellite information

Favourite Embed

Satellite Type and Status

ROCKET BODYIN ORBIT

Key statistics

Satellite SL-8 R/B at a glance.

Uptime

16187

Days in orbit

Revolutions

≈ 15.0

Per day

Orbit

LEO

Low Earth Orbit

Inclination

82.9

Latest

Satellite identification and parameters

Extended collection of information and parameters for SL-8 R/B.

Object identification

Identified? True

Debris? False

Object name: SL-8 R/B

International designator: 1981-003B

Object number (NORAD): 12139

Object ID (CCSDS): 12139

Country: COMMONWEALTH OF INDEPENDENT STATES (CIS)

Current information (Y/N): Y

RCS size: LARGE

Orbital parameters

Period: 96.095 minutes

Inclination: 82.9356 deg

SMA: 6949.606 km

Apoapsis: 786.644 km

Periapsis: 356.297 km

RAAN: 206.6561 deg

Eccentricy: 0.030962

Argument of periapsis: 139.0978 deg

Mean anomaly: 223.3936 deg

Mean motion: 14.98519907 rev/day

Mean motion (dot): 0.00022818 rev/day2

B* drag term: 0.00068126 1/REarth

Two-line elements (TLE)

Creation date: May 12, 2025, 2:31 a.m.

Reference frame: TEME

Reference center: EARTH

Epoch: May 11, 2025, 4:04 p.m. UTC

TLE line 0: 0 SL-8 R/B

TLE line 1: 1 12139U 81003B 25131.67009828 .00022818 00000-0 68126-3 0 9997

TLE line 2: 2 12139 82.9356 206.6561 0309620 139.0978 223.3936 14.98519907269271

Live tracking on map

Real-time ground track for satellite SL-8 R/B.

In-orbit conjunctions

A list of the most updated potential collisions computed for object SL-8 R/B.

Target Orbit TCA Probability of collision Miss distance Type
DELTA 1 DEB SSO 2024-10-07 09:28:55 0.0002338413 223.0 (m) DEBRIS

Associated space launch

Film-return reconnaissance satellite

SL-8 R/B was lifted into orbit during the mission ‘Soyuz U | Zenit-4MT 20’, on board a Soyuz U space rocket.

The launch took place on Jan. 16, 1981, noon from 41/1.

For more information about the launch, click the button.

Launch to space Soyuz U | Zenit-4MT 20
Soyuz U | Zenit-4MT 20

Agency: N/A

Status: Launch Successful

Launch date: Jan. 16, 1981, noon UTC

Rocket: Soyuz U

Launch pad: 41/1

Location: Plesetsk Cosmodrome, Russian Federation

...

Latest news about this satellite

There are no fresh news available about this satellite. Check back as we update our databases every day.


Newsletter sign-up

Weekly statistics, charts and insights to help you stay on top of the space industry.